Location: Domont
(49.0278°N, 2.3264°E)
Time: 12:35:46
(UTC+00:00)

DX 1 - Pass Details

Date: 05 July 2022
Orbit: 617 x 629 km, 98.4° (Epoch: 11 August)

Event Time Altitude Azimuth Distance (km) Brightness Sun altitude
Rises 20:35:41 0° 21° (NNE) 2,931 ? -5.6°
Reaches altitude 10° 20:38:01 10° 29° (NNE) 2,017 ? -5.9°
Maximum altitude 20:42:07 38° 98° (E) 963 ? -6.3°
Drops below altitude 10° 20:46:11 10° 167° (SSE) 1,995 ? -6.8°
Enters shadow 20:47:44 - 173° (S) 2,598 ? -7.0°
